N69AP KOFP-KCHO

Flight info

Callsign N69AP
Flight time N/A
Altitude 4000
Route CSN MRB T358 TWRK T356 WOOLY
Aircraft P28A/L-DGV/C

Departure

Time 2026-05-06 21:14
Airport Hanover County Municipal Airport (KOFP)

Arrival

Time N/A
Airport Charlottesville Albemarle Airport (KCHO)
Time Latitude Longitude Altitude Speed Heading
2026-05-06 20:57 37.70806 -77.43775 210 ft 0 kts 59°
2026-05-06 21:09 37.70792 -77.43761 216 ft 8 kts 149°
2026-05-06 21:10 37.70766 -77.43735 210 ft 0 kts 118°
2026-05-06 21:11 37.70782 -77.43703 213 ft 9 kts
2026-05-06 21:11 37.70853 -77.43747 216 ft 14 kts 328°
2026-05-06 21:12 37.70949 -77.43818 211 ft 18 kts 328°
2026-05-06 21:12 37.71068 -77.43908 211 ft 22 kts 332°
2026-05-06 21:12 37.71209 -77.44008 213 ft 25 kts 330°
2026-05-06 21:12 37.71361 -77.44120 212 ft 24 kts 329°
2026-05-06 21:13 37.71479 -77.44196 214 ft 14 kts 339°
2026-05-06 21:13 37.71512 -77.44176 215 ft 14 kts 54°
2026-05-06 21:13 37.71434 -77.44067 211 ft 36 kts 152°
2026-05-06 21:13 37.71114 -77.43827 236 ft 64 kts 147°
2026-05-06 21:14 37.70728 -77.43488 327 ft 69 kts 153°
2026-05-06 21:14 37.70331 -77.43117 565 ft 74 kts 152°
2026-05-06 21:14 37.69882 -77.42710 753 ft 83 kts 153°
2026-05-06 21:14 37.69575 -77.42067 1007 ft 99 kts 109°
2026-05-06 21:15 37.69681 -77.41174 1208 ft 113 kts 67°
2026-05-06 21:15 37.70285 -77.40531 1432 ft 111 kts 10°
2026-05-06 21:15 37.71041 -77.40483 1652 ft 114 kts 340°
2026-05-06 21:15 37.71842 -77.40656 1880 ft 115 kts 338°
2026-05-06 21:16 37.72621 -77.40795 2104 ft 114 kts 339°
2026-05-06 21:16 37.73406 -77.40922 2300 ft 113 kts 340°
2026-05-06 21:16 37.74202 -77.41029 2521 ft 115 kts 341°
2026-05-06 21:16 37.74988 -77.41184 2691 ft 117 kts 342°
2026-05-06 21:17 37.75730 -77.41457 2903 ft 109 kts 325°